QPF
0.00 0.00 0.02 0.04 0.07 0.06 0.03 0.01 0.01 0.00 0.00 0.01 0.01 0.01 0.02 0.03 0.03 0.05 0.07 0.05 0.06 0.10 0.11 0.16 0.23 0.16 0.10 0.09 0.07 0.06 0.06 0.05 0.06 0.06 0.06 0.07 0.07 0.07 0.07 0.08 0.08 0.09 0.10 0.11 0.18 0.27 0.20 0.18 0.19
0.00 0.01 0.03 0.05 0.06 0.05 0.03 0.01 0.01 0.01 0.01 0.01 0.01 0.01 0.02 0.01 0.01 0.04 0.06 0.04 0.04 0.07 0.08 0.15 0.22 0.18 0.14 0.11 0.08 0.06 0.05 0.05 0.07 0.08 0.08 0.08 0.08 0.10 0.10 0.09 0.09 0.10 0.13 0.16 0.21 0.31 0.23 0.22 0.23
0.00 0.02 0.03 0.06 0.03 0.02 0.02 0.00 0.00 0.00 0.00 0.01 0.02 0.02 0.01 0.01 0.01 0.03 0.05 0.05 0.06 0.07 0.06 0.12 0.21 0.20 0.18 0.15 0.14 0.11 0.08 0.06 0.06 0.09 0.10 0.12 0.11 0.11 0.12 0.09 0.08 0.09 0.12 0.17 0.22 0.32 0.29 0.26 0.24
0.00 0.02 0.03 0.03 0.02 0.00 0.00 0.01 0.00 0.01 0.01 0.01 0.02 0.01 0.00 0.00 0.00 0.02 0.04 0.05 0.05 0.05 0.04 0.09 0.19 0.23 0.23 0.20 0.16 0.16 0.14 0.10 0.08 0.08 0.09 0.12 0.12 0.13 0.13 0.11 0.09 0.09 0.09 0.12 0.14 0.21 0.31 0.27 0.19
0.01 0.03 0.04 0.02 0.01 0.00 0.00 0.01 0.01 0.03 0.03 0.03 0.01 0.01 0.01 0.01 0.01 0.01 0.03 0.04 0.05 0.05 0.04 0.06 0.14 0.19 0.25 0.30 0.30 0.25 0.22 0.18 0.14 0.11 0.11 0.11 0.11 0.11 0.11 0.12 0.12 0.10 0.10 0.10 0.10 0.15 0.29 0.23 0.15
0.02 0.03 0.04 0.01 0.01 0.00 0.00 0.00 0.01 0.02 0.05 0.03 0.01 0.01 0.02 0.04 0.03 0.02 0.02 0.03 0.04 0.04 0.04 0.04 0.11 0.14 0.19 0.25 0.31 0.28 0.23 0.20 0.16 0.14 0.14 0.12 0.11 0.12 0.11 0.11 0.11 0.11 0.11 0.11 0.12 0.16 0.21 0.18 0.13
0.04 0.03 0.02 0.00 0.00 0.00 0.00 0.00 0.00 0.01 0.03 0.02 0.02 0.01 0.02 0.05 0.03 0.01 0.02 0.02 0.03 0.05 0.05 0.05 0.10 0.11 0.12 0.19 0.24 0.28 0.25 0.21 0.19 0.18 0.17 0.15 0.14 0.13 0.11 0.10 0.10 0.09 0.10 0.10 0.11 0.14 0.14 0.12 0.10
0.02 0.01 0.00 0.00 0.00 0.00 0.00 0.00 0.00 0.01 0.01 0.02 0.01 0.01 0.03 0.03 0.03 0.01 0.02 0.03 0.03 0.04 0.04 0.04 0.08 0.11 0.09 0.12 0.16 0.18 0.16 0.15 0.13 0.13 0.14 0.13 0.13 0.11 0.10 0.09 0.09 0.08 0.08 0.08 0.08 0.09 0.08 0.07 0.07
0.01 0.01 0.00 0.00 0.01 0.01 0.00 0.00 0.00 0.00 0.00 0.00 0.00 0.01 0.01 0.01 0.02 0.02 0.03 0.03 0.03 0.04 0.03 0.04 0.09 0.10 0.07 0.07 0.08 0.10 0.10 0.11 0.11 0.11 0.10 0.10 0.09 0.07 0.08 0.08 0.08 0.07 0.05 0.05 0.05 0.05 0.05 0.05 0.06
0.00 0.00 0.01 0.01 0.01 0.01 0.01 0.01 0.00 0.00 0.00 0.01 0.02 0.01 0.01 0.01 0.02 0.02 0.02 0.02 0.03 0.03 0.03 0.05 0.11 0.11 0.06 0.05 0.05 0.08 0.06 0.06 0.07 0.08 0.07 0.08 0.07 0.06 0.06 0.07 0.07 0.06 0.04 0.03 0.03 0.04 0.04 0.05 0.05
0.00 0.00 0.01 0.02 0.03 0.04 0.02 0.00 0.00 0.01 0.02 0.02 0.02 0.01 0.01 0.01 0.01 0.01 0.01 0.02 0.03 0.03 0.04 0.07 0.12 0.12 0.06 0.08 0.05 0.05 0.05 0.05 0.05 0.04 0.03 0.04 0.04 0.04 0.05 0.07 0.06 0.07 0.04 0.03 0.02 0.03 0.03 0.04 0.05
0.00 0.01 0.02 0.05 0.06 0.04 0.03 0.02 0.01 0.01 0.02 0.02 0.01 0.00 0.00 0.01 0.01 0.01 0.01 0.02 0.03 0.03 0.04 0.07 0.10 0.10 0.07 0.07 0.05 0.03 0.03 0.03 0.04 0.03 0.03 0.02 0.04 0.04 0.05 0.07 0.06 0.05 0.05 0.05 0.03 0.03 0.03 0.03 0.03
0.00 0.01 0.03 0.06 0.04 0.04 0.05 0.03 0.02 0.01 0.02 0.01 0.01 0.00 0.00 0.01 0.01 0.01 0.01 0.01 0.02 0.03 0.04 0.06 0.09 0.08 0.07 0.06 0.05 0.04 0.04 0.03 0.02 0.03 0.03 0.02 0.03 0.04 0.06 0.07 0.07 0.05 0.04 0.05 0.04 0.02 0.03 0.04 0.03
0.00 0.01 0.02 0.03 0.03 0.02 0.02 0.02 0.02 0.02 0.02 0.01 0.01 0.01 0.01 0.00 0.00 0.01 0.01 0.01 0.01 0.02 0.03 0.05 0.07 0.06 0.06 0.05 0.04 0.05 0.04 0.05 0.04 0.04 0.03 0.04 0.04 0.04 0.06 0.06 0.06 0.04 0.03 0.04 0.03 0.03 0.04 0.04 0.04
0.00 0.01 0.02 0.02 0.02 0.01 0.01 0.01 0.01 0.02 0.02 0.01 0.01 0.01 0.01 0.01 0.01 0.01 0.01 0.01 0.02 0.02 0.02 0.03 0.04 0.04 0.04 0.04 0.04 0.03 0.03 0.03 0.03 0.04 0.03 0.04 0.06 0.05 0.04 0.04 0.04 0.04 0.03 0.03 0.03 0.03 0.03 0.03 0.03
0.02 0.03 0.05 0.03 0.02 0.01 0.01 0.01 0.01 0.02 0.02 0.02 0.02 0.02 0.02 0.02 0.02 0.01 0.01 0.02 0.03 0.03 0.02 0.02 0.02 0.02 0.03 0.04 0.06 0.03 0.02 0.02 0.02 0.02 0.02 0.02 0.04 0.04 0.04 0.03 0.04 0.04 0.02 0.02 0.03 0.03 0.02 0.03 0.03
0.02 0.02 0.03 0.02 0.01 0.01 0.00 0.01 0.01 0.01 0.01 0.02 0.02 0.02 0.02 0.02 0.02 0.02 0.02 0.02 0.03 0.02 0.02 0.02 0.02 0.02 0.02 0.03 0.03 0.03 0.02 0.01 0.01 0.01 0.01 0.02 0.03 0.03 0.02 0.04 0.04 0.03 0.03 0.03 0.02 0.02 0.02 0.02 0.02
0.02 0.01 0.02 0.02 0.01 0.01 0.01 0.01 0.01 0.00 0.01 0.01 0.02 0.03 0.03 0.02 0.03 0.03 0.02 0.03 0.03 0.02 0.02 0.01 0.01 0.01 0.02 0.02 0.02 0.02 0.02 0.01 0.01 0.02 0.01 0.01 0.02 0.02 0.02 0.03 0.03 0.03 0.03 0.03 0.03 0.04 0.03 0.03 0.02
0.00 0.01 0.01 0.01 0.01 0.01 0.01 0.01 0.01 0.01 0.01 0.01 0.02 0.03 0.02 0.02 0.03 0.03 0.02 0.02 0.02 0.02 0.02 0.02 0.01 0.02 0.03 0.03 0.02 0.02 0.02 0.02 0.02 0.02 0.01 0.00 0.00 0.01 0.03 0.03 0.04 0.03 0.05 0.04 0.04 0.04 0.03 0.03 0.03
0.00 0.00 0.00 0.01 0.01 0.01 0.01 0.01 0.01 0.01 0.01 0.01 0.01 0.02 0.03 0.03 0.03 0.03 0.03 0.02 0.02 0.02 0.01 0.01 0.01 0.02 0.02 0.03 0.03 0.03 0.03 0.03 0.03 0.02 0.01 0.01 0.00 0.01 0.02 0.04 0.05 0.06 0.07 0.06 0.06 0.06 0.05 0.05 0.05
0.01 0.00 0.00 0.01 0.01 0.01 0.01 0.02 0.01 0.01 0.01 0.01 0.01 0.02 0.03 0.02 0.03 0.03 0.03 0.02 0.01 0.02 0.01 0.01 0.02 0.01 0.01 0.03 0.03 0.03 0.05 0.04 0.04 0.03 0.03 0.03 0.02 0.02 0.03 0.04 0.05 0.06 0.06 0.09 0.08 0.07 0.06 0.06 0.06
0.02 0.00 0.00 0.00 0.01 0.01 0.02 0.05 0.02 0.01 0.00 0.00 0.01 0.02 0.02 0.01 0.01 0.01 0.02 0.02 0.01 0.01 0.00 0.00 0.01 0.01 0.02 0.03 0.04 0.03 0.04 0.03 0.03 0.02 0.03 0.03 0.01 0.02 0.03 0.04 0.04 0.05 0.04 0.07 0.06 0.07 0.05 0.06 0.06
0.00 0.00 0.00 0.00 0.04 0.04 0.03 0.05 0.03 0.01 0.00 0.00 0.01 0.01 0.01 0.00 0.00 0.01 0.01 0.01 0.00 0.00 0.00 0.00 0.01 0.01 0.02 0.03 0.04 0.04 0.05 0.04 0.03 0.03 0.04 0.04 0.04 0.03 0.03 0.02 0.03 0.03 0.03 0.04 0.04 0.05 0.05 0.06 0.06
0.00 0.00 0.01 0.02 0.04 0.04 0.01 0.03 0.03 0.04 0.03 0.00 0.00 0.01 0.01 0.00 0.00 0.00 0.00 0.00 0.00 0.00 0.00 0.00 0.01 0.01 0.02 0.03 0.02 0.03 0.04 0.04 0.05 0.05 0.05 0.04 0.04 0.04 0.03 0.02 0.03 0.03 0.04 0.03 0.02 0.03 0.05 0.07 0.07
0.00 0.03 0.05 0.04 0.03 0.02 0.00 0.00 0.01 0.02 0.02 0.01 0.00 0.00 0.00 0.00 0.00 0.00 0.00 0.00 0.00 0.00 0.00 0.00 0.01 0.01 0.02 0.02 0.02 0.02 0.04 0.04 0.04 0.03 0.04 0.03 0.03 0.04 0.03 0.03 0.04 0.04 0.04 0.03 0.02 0.03 0.05 0.08 0.08
0.00 0.01 0.04 0.05 0.03 0.01 0.01 0.00 0.01 0.02 0.01 0.00 0.00 0.00 0.00 0.00 0.00 0.00 0.00 0.00 0.00 0.00 0.00 0.00 0.01 0.01 0.02 0.02 0.03 0.03 0.04 0.03 0.03 0.03 0.02 0.02 0.02 0.02 0.02 0.02 0.02 0.02 0.03 0.02 0.03 0.04 0.05 0.07 0.06
0.00 0.00 0.01 0.01 0.01 0.01 0.02 0.01 0.00 0.00 0.00 0.00 0.00 0.00 0.00 0.00 0.00 0.00 0.00 0.00 0.00 0.00 0.00 0.00 0.00 0.01 0.02 0.02 0.03 0.03 0.03 0.03 0.04 0.05 0.04 0.03 0.03 0.01 0.02 0.02 0.02 0.02 0.02 0.03 0.03 0.05 0.05 0.05 0.06
0.00 0.00 0.00 0.00 0.01 0.02 0.03 0.02 0.00 0.00 0.00 0.00 0.00 0.00 0.00 0.00 0.00 0.00 0.00 0.00 0.00 0.00 0.00 0.00 0.01 0.01 0.01 0.01 0.02 0.02 0.03 0.03 0.03 0.04 0.03 0.03 0.02 0.01 0.03 0.02 0.03 0.02 0.02 0.04 0.05 0.04 0.05 0.05 0.07
0.00 0.00 0.00 0.00 0.01 0.02 0.01 0.01 0.01 0.00 0.00 0.00 0.00 0.00 0.01 0.01 0.01 0.00 0.00 0.00 0.00 0.00 0.00 0.01 0.01 0.01 0.01 0.01 0.02 0.02 0.02 0.02 0.02 0.02 0.02 0.02 0.02 0.03 0.04 0.03 0.04 0.03 0.03 0.05 0.05 0.05 0.05 0.06 0.08
0.00 0.00 0.00 0.01 0.00 0.00 0.01 0.01 0.01 0.00 0.00 0.00 0.00 0.00 0.00 0.00 0.00 0.00 0.00 0.00 0.00 0.00 0.00 0.01 0.01 0.02 0.01 0.01 0.02 0.02 0.01 0.01 0.01 0.01 0.01 0.01 0.01 0.01 0.02 0.03 0.04 0.03 0.03 0.04 0.04 0.04 0.05 0.06 0.05
MSLP
1004.86 1006.10 1007.63 1009.23 1010.70 1011.86 1012.60 1012.88 1012.78 1012.43 1012.00 1011.66 1011.51 1011.60 1011.88 1012.29 1012.70 1013.00 1013.14 1013.11 1012.94 1012.72 1012.53 1012.44 1012.48 1012.62 1012.79 1012.93 1012.97 1012.86 1012.62 1012.26 1011.87 1011.49 1011.19 1010.98 1010.84 1010.75 1010.66 1010.54 1010.39 1010.23 1010.08 1010.00 1010.00 1010.12 1010.33 1010.62 1010.95
1005.13 1006.59 1008.27 1009.94 1011.41 1012.49 1013.11 1013.25 1013.02 1012.57 1012.06 1011.66 1011.45 1011.47 1011.68 1011.99 1012.30 1012.53 1012.64 1012.64 1012.56 1012.48 1012.46 1012.52 1012.69 1012.89 1013.09 1013.20 1013.19 1013.04 1012.79 1012.47 1012.17 1011.93 1011.78 1011.72 1011.70 1011.69 1011.64 1011.52 1011.35 1011.15 1010.97 1010.86 1010.85 1010.95 1011.14 1011.39 1011.67
1005.52 1007.09 1008.82 1010.47 1011.84 1012.79 1013.26 1013.27 1012.95 1012.44 1011.93 1011.54 1011.34 1011.35 1011.50 1011.73 1011.95 1012.10 1012.17 1012.17 1012.17 1012.21 1012.34 1012.56 1012.85 1013.13 1013.34 1013.43 1013.37 1013.17 1012.89 1012.60 1012.36 1012.23 1012.20 1012.27 1012.37 1012.44 1012.44 1012.36 1012.19 1011.99 1011.82 1011.71 1011.70 1011.79 1011.96 1012.16 1012.36
1006.02 1007.62 1009.30 1010.83 1012.04 1012.81 1013.12 1013.02 1012.65 1012.17 1011.72 1011.41 1011.28 1011.32 1011.47 1011.64 1011.77 1011.82 1011.82 1011.81 1011.84 1011.96 1012.21 1012.55 1012.94 1013.29 1013.53 1013.60 1013.49 1013.25 1012.94 1012.64 1012.44 1012.36 1012.42 1012.58 1012.76 1012.90 1012.96 1012.91 1012.79 1012.63 1012.49 1012.41 1012.43 1012.52 1012.66 1012.81 1012.92
1006.62 1008.17 1009.72 1011.06 1012.06 1012.64 1012.80 1012.63 1012.26 1011.86 1011.54 1011.38 1011.37 1011.49 1011.65 1011.78 1011.82 1011.77 1011.67 1011.60 1011.61 1011.77 1012.08 1012.50 1012.97 1013.37 1013.62 1013.68 1013.54 1013.26 1012.92 1012.61 1012.41 1012.37 1012.46 1012.65 1012.88 1013.06 1013.15 1013.15 1013.07 1012.96 1012.88 1012.86 1012.91 1013.02 1013.14 1013.24 1013.27
1007.28 1008.71 1010.07 1011.20 1011.97 1012.36 1012.40 1012.19 1011.89 1011.62 1011.48 1011.50 1011.66 1011.88 1012.08 1012.17 1012.13 1011.97 1011.76 1011.59 1011.54 1011.67 1011.99 1012.44 1012.93 1013.36 1013.62 1013.67 1013.52 1013.23 1012.87 1012.55 1012.34 1012.30 1012.39 1012.58 1012.80 1012.98 1013.09 1013.11 1013.07 1013.01 1012.99 1013.03 1013.13 1013.26 1013.38 1013.44 1013.42
1007.92 1009.20 1010.36 1011.25 1011.82 1012.05 1012.01 1011.83 1011.62 1011.51 1011.57 1011.80 1012.12 1012.45 1012.69 1012.77 1012.65 1012.39 1012.06 1011.78 1011.64 1011.71 1011.98 1012.40 1012.88 1013.29 1013.55 1013.60 1013.45 1013.16 1012.80 1012.49 1012.29 1012.23 1012.31 1012.47 1012.65 1012.81 1012.89 1012.91 1012.89 1012.87 1012.90 1012.99 1013.13 1013.29 1013.42 1013.47 1013.42
1008.47 1009.60 1010.56 1011.26 1011.66 1011.78 1011.71 1011.57 1011.48 1011.55 1011.80 1012.20 1012.68 1013.11 1013.40 1013.46 1013.29 1012.94 1012.52 1012.14 1011.90 1011.88 1012.07 1012.43 1012.85 1013.22 1013.45 1013.49 1013.35 1013.08 1012.76 1012.47 1012.29 1012.23 1012.29 1012.42 1012.56 1012.67 1012.72 1012.71 1012.69 1012.69 1012.74 1012.87 1013.04 1013.22 1013.36 1013.41 1013.36
1008.93 1009.91 1010.71 1011.25 1011.52 1011.57 1011.51 1011.44 1011.47 1011.69 1012.10 1012.64 1013.23 1013.74 1014.05 1014.12 1013.93 1013.53 1013.05 1012.60 1012.30 1012.19 1012.29 1012.56 1012.89 1013.19 1013.37 1013.40 1013.26 1013.02 1012.75 1012.51 1012.37 1012.34 1012.40 1012.50 1012.61 1012.66 1012.67 1012.63 1012.58 1012.57 1012.64 1012.77 1012.96 1013.15 1013.30 1013.36 1013.33
1009.29 1010.16 1010.82 1011.24 1011.44 1011.47 1011.44 1011.44 1011.58 1011.90 1012.41 1013.04 1013.68 1014.22 1014.56 1014.63 1014.45 1014.06 1013.58 1013.11 1012.77 1012.61 1012.64 1012.81 1013.04 1013.25 1013.37 1013.35 1013.22 1013.01 1012.79 1012.62 1012.53 1012.54 1012.62 1012.72 1012.80 1012.82 1012.78 1012.70 1012.63 1012.60 1012.65 1012.78 1012.96 1013.15 1013.31 1013.38 1013.38
1009.62 1010.39 1010.96 1011.30 1011.46 1011.50 1011.50 1011.57 1011.77 1012.15 1012.69 1013.33 1013.97 1014.50 1014.83 1014.93 1014.78 1014.44 1014.01 1013.60 1013.28 1013.11 1013.08 1013.17 1013.30 1013.41 1013.45 1013.38 1013.23 1013.04 1012.87 1012.75 1012.73 1012.79 1012.90 1013.01 1013.08 1013.09 1013.02 1012.92 1012.82 1012.76 1012.79 1012.89 1013.06 1013.24 1013.40 1013.49 1013.52
1009.99 1010.67 1011.16 1011.46 1011.61 1011.66 1011.70 1011.81 1012.03 1012.41 1012.92 1013.50 1014.08 1014.55 1014.87 1014.98 1014.88 1014.64 1014.32 1014.00 1013.75 1013.61 1013.57 1013.60 1013.65 1013.66 1013.61 1013.48 1013.30 1013.11 1012.97 1012.90 1012.92 1013.02 1013.17 1013.30 1013.38 1013.38 1013.31 1013.19 1013.08 1013.00 1013.00 1013.08 1013.23 1013.40 1013.56 1013.66 1013.71
1010.43 1011.04 1011.47 1011.73 1011.88 1011.95 1012.02 1012.14 1012.35 1012.67 1013.09 1013.57 1014.03 1014.42 1014.69 1014.81 1014.78 1014.65 1014.46 1014.28 1014.14 1014.06 1014.03 1014.03 1014.02 1013.95 1013.82 1013.63 1013.41 1013.21 1013.07 1013.02 1013.07 1013.19 1013.35 1013.50 1013.59 1013.60 1013.54 1013.43 1013.31 1013.23 1013.22 1013.29 1013.42 1013.57 1013.73 1013.85 1013.92
1010.96 1011.48 1011.85 1012.09 1012.24 1012.33 1012.42 1012.53 1012.69 1012.93 1013.23 1013.56 1013.88 1014.16 1014.37 1014.49 1014.52 1014.50 1014.45 1014.40 1014.38 1014.38 1014.40 1014.39 1014.34 1014.22 1014.03 1013.79 1013.54 1013.31 1013.16 1013.10 1013.14 1013.26 1013.41 1013.55 1013.65 1013.68 1013.63 1013.55 1013.45 1013.39 1013.38 1013.44 1013.56 1013.71 1013.87 1014.00 1014.09
1011.50 1011.94 1012.25 1012.47 1012.62 1012.73 1012.83 1012.92 1013.04 1013.17 1013.34 1013.51 1013.69 1013.85 1013.99 1014.09 1014.18 1014.24 1014.31 1014.38 1014.47 1014.54 1014.60 1014.61 1014.55 1014.41 1014.19 1013.93 1013.66 1013.41 1013.23 1013.15 1013.16 1013.24 1013.36 1013.47 1013.56 1013.59 1013.58 1013.52 1013.47 1013.43 1013.45 1013.53 1013.65 1013.80 1013.96 1014.09 1014.20
1011.96 1012.30 1012.56 1012.76 1012.93 1013.07 1013.18 1013.27 1013.33 1013.38 1013.42 1013.46 1013.50 1013.55 1013.62 1013.70 1013.81 1013.94 1014.08 1014.24 1014.40 1014.53 1014.63 1014.66 1014.61 1014.47 1014.27 1014.02 1013.75 1013.51 1013.32 1013.20 1013.16 1013.18 1013.24 1013.31 1013.36 1013.39 1013.40 1013.39 1013.38 1013.39 1013.45 1013.55 1013.68 1013.84 1014.00 1014.13 1014.25
1012.21 1012.47 1012.69 1012.90 1013.10 1013.28 1013.42 1013.52 1013.56 1013.54 1013.48 1013.41 1013.34 1013.30 1013.31 1013.37 1013.48 1013.63 1013.82 1014.02 1014.21 1014.37 1014.48 1014.53 1014.51 1014.41 1014.26 1014.06 1013.84 1013.62 1013.43 1013.29 1013.19 1013.14 1013.12 1013.12 1013.13 1013.14 1013.16 1013.19 1013.24 1013.31 1013.42 1013.55 1013.70 1013.86 1014.01 1014.14 1014.25
1012.20 1012.39 1012.60 1012.84 1013.09 1013.34 1013.54 1013.66 1013.69 1013.64 1013.52 1013.36 1013.22 1013.12 1013.08 1013.11 1013.22 1013.38 1013.57 1013.77 1013.96 1014.11 1014.23 1014.29 1014.29 1014.25 1014.17 1014.05 1013.90 1013.74 1013.58 1013.42 1013.28 1013.15 1013.05 1012.97 1012.92 1012.91 1012.93 1013.00 1013.10 1013.23 1013.38 1013.55 1013.72 1013.88 1014.02 1014.13 1014.22
1011.90 1012.07 1012.31 1012.61 1012.96 1013.29 1013.56 1013.73 1013.77 1013.69 1013.53 1013.32 1013.12 1012.98 1012.91 1012.94 1013.04 1013.19 1013.37 1013.55 1013.70 1013.83 1013.92 1013.98 1014.01 1014.03 1014.03 1014.01 1013.96 1013.88 1013.76 1013.61 1013.42 1013.23 1013.04 1012.88 1012.77 1012.72 1012.74 1012.83 1012.97 1013.15 1013.36 1013.56 1013.74 1013.89 1014.01 1014.10 1014.16
1011.40 1011.59 1011.90 1012.31 1012.77 1013.21 1013.57 1013.78 1013.84 1013.74 1013.53 1013.28 1013.05 1012.87 1012.80 1012.82 1012.92 1013.07 1013.23 1013.38 1013.49 1013.57 1013.63 1013.67 1013.72 1013.79 1013.87 1013.95 1014.00 1014.01 1013.95 1013.81 1013.60 1013.35 1013.09 1012.85 1012.67 1012.57 1012.57 1012.67 1012.84 1013.06 1013.30 1013.52 1013.71 1013.85 1013.95 1014.00 1014.03
1010.82 1011.08 1011.52 1012.07 1012.67 1013.23 1013.66 1013.91 1013.96 1013.83 1013.57 1013.26 1012.98 1012.78 1012.70 1012.73 1012.84 1013.00 1013.16 1013.28 1013.36 1013.39 1013.40 1013.42 1013.47 1013.57 1013.71 1013.87 1014.01 1014.09 1014.08 1013.97 1013.75 1013.46 1013.13 1012.82 1012.57 1012.42 1012.39 1012.48 1012.67 1012.91 1013.16 1013.39 1013.58 1013.70 1013.77 1013.79 1013.79
1010.31 1010.70 1011.30 1012.02 1012.77 1013.44 1013.94 1014.20 1014.22 1014.01 1013.66 1013.27 1012.93 1012.69 1012.59 1012.63 1012.77 1012.95 1013.11 1013.23 1013.28 1013.28 1013.25 1013.23 1013.27 1013.37 1013.54 1013.74 1013.94 1014.08 1014.12 1014.03 1013.80 1013.48 1013.10 1012.72 1012.41 1012.21 1012.14 1012.21 1012.38 1012.62 1012.87 1013.10 1013.27 1013.37 1013.41 1013.40 1013.37
1009.99 1010.55 1011.32 1012.22 1013.12 1013.89 1014.43 1014.67 1014.61 1014.30 1013.84 1013.33 1012.89 1012.59 1012.46 1012.50 1012.66 1012.87 1013.07 1013.20 1013.24 1013.22 1013.15 1013.10 1013.10 1013.18 1013.35 1013.56 1013.79 1013.96 1014.03 1013.95 1013.73 1013.38 1012.96 1012.54 1012.17 1011.91 1011.79 1011.82 1011.96 1012.17 1012.40 1012.61 1012.76 1012.84 1012.85 1012.82 1012.77
1009.91 1010.64 1011.60 1012.67 1013.70 1014.54 1015.09 1015.29 1015.13 1014.68 1014.07 1013.42 1012.86 1012.48 1012.30 1012.33 1012.50 1012.75 1012.98 1013.14 1013.20 1013.17 1013.08 1012.98 1012.94 1012.98 1013.12 1013.32 1013.54 1013.71 1013.79 1013.73 1013.51 1013.16 1012.72 1012.27 1011.85 1011.54 1011.37 1011.34 1011.43 1011.59 1011.78 1011.95 1012.07 1012.12 1012.11 1012.05 1011.99
1010.03 1010.93 1012.05 1013.25 1014.38 1015.27 1015.81 1015.94 1015.68 1015.09 1014.33 1013.53 1012.84 1012.36 1012.12 1012.12 1012.30 1012.57 1012.84 1013.03 1013.12 1013.09 1012.98 1012.86 1012.77 1012.76 1012.84 1013.01 1013.20 1013.37 1013.45 1013.40 1013.20 1012.86 1012.42 1011.95 1011.51 1011.15 1010.92 1010.83 1010.85 1010.95 1011.08 1011.20 1011.27 1011.29 1011.25 1011.17 1011.10
1010.26 1011.28 1012.51 1013.81 1014.99 1015.90 1016.42 1016.49 1016.13 1015.43 1014.55 1013.63 1012.83 1012.25 1011.95 1011.91 1012.08 1012.36 1012.66 1012.88 1012.99 1012.97 1012.86 1012.72 1012.59 1012.53 1012.56 1012.67 1012.83 1012.99 1013.07 1013.04 1012.86 1012.55 1012.13 1011.67 1011.22 1010.83 1010.55 1010.38 1010.33 1010.35 1010.40 1010.46 1010.47 1010.44 1010.37 1010.27 1010.17
1010.48 1011.55 1012.84 1014.16 1015.36 1016.26 1016.76 1016.79 1016.38 1015.62 1014.66 1013.67 1012.80 1012.16 1011.81 1011.73 1011.88 1012.17 1012.47 1012.72 1012.84 1012.84 1012.74 1012.57 1012.42 1012.31 1012.30 1012.37 1012.50 1012.64 1012.73 1012.72 1012.58 1012.31 1011.94 1011.50 1011.05 1010.64 1010.32 1010.09 1009.95 1009.89 1009.86 1009.84 1009.79 1009.70 1009.58 1009.45 1009.32
1010.60 1011.66 1012.91 1014.20 1015.35 1016.22 1016.69 1016.72 1016.31 1015.56 1014.61 1013.63 1012.76 1012.11 1011.74 1011.64 1011.77 1012.04 1012.34 1012.59 1012.73 1012.74 1012.65 1012.48 1012.31 1012.18 1012.13 1012.17 1012.27 1012.39 1012.49 1012.51 1012.42 1012.20 1011.88 1011.48 1011.06 1010.64 1010.28 1010.00 1009.79 1009.63 1009.52 1009.41 1009.29 1009.14 1008.97 1008.78 1008.60
1010.61 1011.57 1012.70 1013.87 1014.93 1015.73 1016.18 1016.22 1015.88 1015.22 1014.38 1013.49 1012.70 1012.10 1011.76 1011.67 1011.79 1012.04 1012.32 1012.57 1012.71 1012.74 1012.65 1012.49 1012.32 1012.18 1012.11 1012.12 1012.20 1012.32 1012.42 1012.46 1012.41 1012.25 1011.98 1011.63 1011.23 1010.82 1010.44 1010.10 1009.82 1009.59 1009.39 1009.20 1009.00 1008.79 1008.55 1008.30 1008.06
1010.56 1011.34 1012.27 1013.25 1014.15 1014.86 1015.28 1015.37 1015.14 1014.63 1013.96 1013.26 1012.62 1012.14 1011.87 1011.82 1011.94 1012.18 1012.45 1012.69 1012.83 1012.86 1012.80 1012.66 1012.50 1012.36 1012.28 1012.27 1012.32 1012.42 1012.51 1012.56 1012.53 1012.40 1012.18 1011.87 1011.50 1011.10 1010.70 1010.33 1009.99 1009.69 1009.41 1009.15 1008.88 1008.60 1008.30 1007.99 1007.68
Thickness
5837 5838 5836 5826 5805 5794 5786 5794 5802 5801 5804 5813 5815 5808 5795 5788 5778 5764 5787 5797 5797 5793 5790 5788 5788 5789 5789 5789 5788 5788 5788 5788 5789 5788 5788 5788 5787 5787 5786 5786 5785 5784 5782 5781 5779 5778 5776 5774 5773
5845 5846 5835 5819 5796 5781 5782 5799 5799 5802 5810 5817 5814 5808 5797 5790 5793 5789 5792 5798 5799 5795 5791 5788 5788 5788 5788 5788 5787 5787 5787 5787 5787 5786 5786 5786 5785 5785 5784 5784 5783 5782 5780 5779 5777 5775 5774 5773 5772
5848 5848 5827 5816 5803 5789 5787 5803 5806 5813 5819 5815 5807 5805 5796 5788 5793 5792 5796 5801 5800 5796 5791 5787 5787 5787 5787 5787 5787 5786 5786 5786 5785 5785 5785 5785 5784 5783 5782 5781 5780 5779 5778 5777 5776 5774 5773 5771 5770
5848 5841 5830 5815 5800 5808 5809 5811 5815 5812 5815 5817 5809 5796 5795 5801 5799 5798 5802 5803 5800 5796 5791 5787 5786 5786 5786 5786 5785 5785 5785 5784 5784 5784 5784 5783 5782 5781 5780 5779 5778 5778 5777 5776 5775 5773 5772 5770 5769
5849 5832 5817 5808 5805 5816 5823 5824 5821 5810 5808 5810 5805 5788 5786 5800 5805 5805 5805 5804 5800 5796 5792 5788 5786 5786 5785 5785 5784 5784 5784 5783 5782 5782 5782 5781 5780 5779 5778 5777 5776 5776 5775 5774 5773 5772 5771 5770 5768
5837 5835 5812 5802 5806 5818 5825 5829 5823 5813 5810 5810 5804 5790 5786 5801 5802 5804 5806 5804 5802 5798 5793 5788 5785 5785 5784 5784 5783 5783 5782 5782 5781 5781 5780 5779 5779 5778 5777 5776 5775 5775 5774 5773 5772 5771 5770 5769 5768
5835 5830 5817 5815 5810 5813 5823 5833 5823 5815 5811 5813 5812 5792 5788 5797 5803 5807 5806 5805 5803 5800 5796 5791 5787 5784 5783 5783 5782 5782 5781 5781 5780 5780 5779 5778 5777 5776 5776 5775 5774 5774 5773 5772 5771 5770 5769 5768 5768
5859 5839 5826 5822 5813 5811 5828 5832 5830 5823 5814 5825 5821 5796 5786 5797 5807 5807 5805 5803 5801 5800 5797 5795 5791 5787 5785 5783 5782 5781 5780 5780 5779 5779 5778 5777 5776 5775 5775 5774 5773 5772 5772 5771 5770 5770 5769 5768 5768
5869 5835 5820 5823 5819 5819 5832 5826 5829 5834 5823 5822 5822 5813 5806 5809 5809 5803 5799 5798 5797 5797 5797 5796 5794 5790 5788 5786 5783 5781 5780 5779 5778 5778 5777 5777 5776 5775 5775 5774 5773 5772 5771 5771 5770 5770 5769 5768 5768
5859 5829 5829 5842 5841 5834 5834 5829 5829 5825 5815 5811 5810 5812 5813 5809 5805 5798 5794 5791 5791 5793 5795 5795 5793 5791 5790 5788 5784 5783 5781 5779 5779 5778 5778 5777 5777 5777 5775 5773 5772 5771 5771 5770 5770 5770 5769 5769 5769
5855 5839 5846 5850 5852 5848 5838 5835 5837 5823 5809 5810 5806 5807 5809 5806 5802 5798 5795 5794 5792 5794 5795 5794 5792 5790 5790 5788 5786 5784 5783 5781 5780 5779 5779 5778 5778 5777 5774 5773 5772 5771 5770 5771 5770 5770 5770 5770 5770
5855 5853 5855 5854 5856 5850 5841 5838 5834 5827 5821 5826 5822 5816 5811 5805 5802 5799 5795 5795 5794 5794 5793 5793 5792 5789 5788 5788 5786 5785 5784 5781 5781 5780 5779 5779 5778 5777 5775 5774 5773 5773 5773 5773 5772 5772 5772 5772 5771
5855 5854 5858 5859 5857 5853 5847 5838 5832 5828 5833 5832 5825 5818 5812 5807 5805 5804 5802 5800 5797 5794 5793 5793 5792 5789 5787 5786 5786 5786 5785 5783 5782 5781 5780 5779 5778 5776 5775 5774 5774 5774 5774 5773 5773 5773 5772 5771 5771
5860 5859 5859 5858 5855 5853 5842 5837 5832 5828 5835 5828 5821 5815 5814 5811 5808 5805 5803 5800 5797 5795 5794 5793 5792 5789 5787 5786 5786 5786 5785 5784 5782 5780 5779 5779 5778 5776 5775 5774 5774 5774 5774 5774 5773 5773 5772 5770 5770
5865 5850 5846 5853 5854 5850 5842 5825 5828 5835 5835 5825 5820 5818 5816 5814 5812 5808 5806 5803 5801 5798 5796 5794 5793 5790 5788 5787 5787 5787 5785 5784 5782 5781 5779 5778 5777 5776 5775 5774 5773 5774 5774 5774 5773 5773 5772 5770 5770
5852 5837 5825 5843 5853 5852 5835 5809 5830 5842 5834 5824 5822 5819 5816 5815 5815 5813 5811 5807 5805 5801 5797 5796 5796 5791 5789 5787 5787 5787 5786 5785 5783 5781 5780 5778 5777 5777 5776 5774 5774 5774 5774 5774 5773 5771 5770 5769 5768
5832 5821 5820 5836 5855 5853 5837 5820 5833 5844 5836 5825 5823 5821 5818 5816 5816 5816 5815 5811 5808 5804 5799 5796 5795 5792 5790 5789 5788 5787 5786 5785 5784 5783 5781 5779 5778 5778 5776 5775 5775 5775 5774 5773 5772 5770 5768 5766 5766
5823 5827 5828 5833 5852 5852 5840 5831 5836 5844 5839 5830 5827 5824 5821 5818 5818 5819 5818 5815 5811 5807 5802 5798 5795 5794 5792 5790 5788 5787 5787 5786 5786 5784 5781 5780 5779 5778 5777 5776 5775 5775 5773 5771 5770 5767 5767 5766 5765
5848 5839 5835 5845 5862 5853 5841 5834 5836 5844 5840 5833 5829 5827 5824 5823 5825 5824 5821 5818 5813 5808 5803 5800 5797 5795 5792 5790 5787 5785 5784 5785 5785 5785 5782 5781 5780 5779 5778 5776 5775 5774 5772 5770 5769 5767 5765 5764 5765
5849 5836 5836 5849 5863 5852 5838 5836 5843 5846 5843 5841 5836 5832 5830 5827 5825 5823 5821 5818 5814 5809 5805 5801 5799 5797 5794 5792 5790 5789 5788 5787 5787 5786 5784 5782 5780 5779 5779 5776 5775 5774 5772 5770 5768 5766 5762 5763 5764
5844 5841 5842 5841 5853 5854 5838 5826 5836 5845 5849 5847 5845 5841 5838 5832 5827 5823 5820 5818 5816 5811 5808 5805 5801 5798 5796 5795 5792 5791 5788 5786 5785 5784 5783 5783 5782 5780 5778 5777 5775 5774 5772 5769 5767 5766 5762 5759 5761
5837 5855 5850 5843 5835 5826 5831 5806 5825 5837 5838 5842 5843 5842 5840 5838 5833 5828 5824 5821 5818 5816 5813 5808 5803 5800 5797 5796 5792 5789 5784 5781 5783 5783 5784 5783 5782 5781 5779 5777 5776 5774 5772 5769 5768 5766 5764 5761 5757
5850 5861 5850 5842 5829 5823 5830 5815 5818 5838 5830 5837 5843 5844 5843 5842 5839 5833 5830 5826 5824 5821 5816 5810 5805 5801 5799 5796 5794 5790 5788 5786 5787 5785 5784 5783 5782 5781 5780 5778 5776 5773 5771 5769 5768 5766 5764 5761 5758
5861 5852 5842 5835 5824 5804 5823 5816 5809 5832 5835 5839 5845 5846 5846 5845 5843 5838 5836 5831 5826 5824 5819 5813 5806 5802 5800 5797 5795 5792 5789 5787 5785 5783 5782 5782 5782 5781 5780 5778 5776 5773 5771 5769 5767 5765 5763 5761 5759
5849 5822 5798 5791 5792 5802 5832 5823 5823 5846 5855 5854 5850 5850 5851 5850 5846 5840 5835 5830 5826 5823 5819 5815 5807 5802 5800 5798 5795 5793 5791 5788 5785 5783 5782 5781 5781 5779 5779 5779 5775 5773 5771 5769 5767 5764 5761 5760 5757
5840 5826 5794 5776 5784 5808 5827 5818 5834 5859 5863 5865 5862 5859 5855 5852 5848 5843 5839 5834 5829 5825 5820 5815 5809 5803 5801 5798 5796 5795 5792 5790 5787 5786 5785 5783 5782 5781 5780 5778 5775 5772 5770 5768 5765 5762 5760 5759 5757
5834 5832 5839 5815 5807 5799 5811 5823 5840 5856 5856 5859 5859 5855 5851 5849 5849 5845 5841 5837 5832 5827 5822 5818 5811 5805 5802 5800 5797 5794 5792 5790 5788 5787 5785 5783 5782 5782 5780 5777 5774 5771 5769 5766 5763 5760 5757 5756 5755
5851 5843 5833 5815 5789 5779 5795 5809 5819 5831 5841 5848 5848 5847 5848 5847 5845 5845 5843 5839 5834 5830 5826 5821 5814 5808 5804 5801 5798 5796 5793 5791 5788 5787 5784 5782 5781 5780 5778 5775 5772 5769 5767 5764 5761 5758 5756 5754 5752
5837 5835 5828 5821 5810 5789 5778 5800 5839 5839 5844 5846 5848 5849 5847 5845 5843 5843 5842 5839 5836 5832 5827 5820 5815 5809 5804 5801 5798 5796 5793 5791 5789 5786 5784 5782 5780 5778 5775 5773 5770 5767 5765 5762 5759 5756 5753 5751 5749
5844 5836 5829 5805 5800 5802 5791 5801 5850 5847 5851 5851 5850 5848 5848 5847 5846 5843 5840 5837 5833 5829 5824 5819 5814 5809 5805 5801 5798 5795 5793 5791 5788 5785 5783 5781 5778 5776 5774 5771 5768 5765 5762 5759 5756 5753 5751 5748 5745